Weather Roundup
Issued by NWS Chicago, IL

Home | Current Version | Previous Version | Text Only | Print | Product List | Glossary On
Versions: 1 2 3 4 5 6 7 8 9 10 11 12 13 14 15 16 17 18 19 20 21 22 23 24 25 26 27 28 29 30 31 32 33 34 35 36 37 38 39 40 41 42 43 44 45 46 47 48 49 50
000
NZUS59 KLOT 021722
HRRLOT

CHICAGO AREA WEATHER ROUNDUP
NATIONAL WEATHER SERVICE CHICAGO/ROMEOVILLE IL
1200 PM CDT WED SEP 02 2015

NOTE: "FAIR" INDICATES FEW OR NO CLOUDS BELOW 12,000 FEET WITH NO
SIGNIFICANT WEATHER AND/OR OBSTRUCTIONS TO VISIBILITY.

* THESE STATIONS ARE NOT UNDER NWS QUALITY CONTROL. THEY ALSO MAY NOT
  REPORT WEATHER SUCH AS PRECIPITATION OR FOG.

ILZ005-006-012>014-019>023-021800-
NORTHEAST ILLINOIS

CITY           SKY/WX    TMP DP  RH WIND       PRES   REMARKS
OHARE          MOSUNNY   86  69  56 SW8       30.03F HX  90
MIDWAY         MOSUNNY   88  69  53 W10       30.03F HX  92
AURORA         MOSUNNY   85  73  67 SW6       30.04F HX  91
LANSING*       MOSUNNY   87  72  59 SW3       30.04F HX  93
JOLIET*        SUNNY     88  73  61 SW7       30.04F HX  96
WAUKEGAN       SUNNY     86  70  58 SW9       30.02F HX  90
DUPAGE AIRPORT SUNNY     86  71  60 S7        30.03F HX  91
WHEELING       SUNNY     88  68  51 SW8       30.03F HX  91
KANKAKEE*      SUNNY     88  73  61 W9        30.07F HX  95
MORRIS*        SUNNY     86  72  63 SW8       30.04F HX  92
LEWIS AIRPORT* SUNNY     85  70  60 W3        30.05F HX  90
NORTHERLY IS     N/A     82  67  60 SW10        N/A  HX  84
$$

WIZ051-052-058>065-066-070>072-021800-
SOUTHEAST WISCONSIN

CITY           SKY/WX    TMP DP  RH WIND       PRES   REMARKS
MILWAUKEE      PTSUNNY   87  69  54 SW9       30.00F HX  91
KENOSHA*       SUNNY     86  70  58 SW9       30.02F HX  90
RACINE*        SUNNY     87  70  56 SW8       30.02F HX  92
BURLINGTON     SUNNY     83  67  58 W7        30.02F HX  86
WAUKESHA       SUNNY     82  70  65 SW6       30.02  HX  86
WEST BEND      SUNNY     84  66  54 SW7       30.00F HX  86
$$

INZ001>003-010>013-019-020-021800-
NORTHWEST INDIANA

CITY           SKY/WX    TMP DP  RH WIND       PRES   REMARKS
GARY*          MOSUNNY   88  66  48 SW3       30.05F HX  90
MICHIGAN CITY* NOT AVBL
RENSSELAER*    NOT AVBL
VALPARAISO     SUNNY     86  72  62 SW8       30.06F HX  92
$$

LMZ740>746-021800-
SOUTHERN LAKE MICHIGAN

STATION/POSITION TIME  SKY/WX   TEMP WIND        PRES    VSBY
                                AIR  DIR/SP/G
                 (UTC)          (F)  (DEG/KT/KT) (MB)    (MI)
HARRISON CRIB    1700            80  160/  8/ 10   N/A
BURNHAM HARBOR   1700            87  250/  3/  9   N/A
CALUMET HARBOR   1700            85  200/  5/  9   N/A
BURNS HARBOR     1600            81  240/  4/  5 1018.3F
MICHIGAN CITY    1700            81  220/  5/  5   N/A
$$

ABBREVIATIONS USED IN REMARKS
   TC - TEMPERATURE IN CELSIUS
  WCI - WIND CHILL INDEX
   HX - HEAT INDEX
  VSB - VISIBILITY
$$


USA.gov is the U.S. government's official web portal to all federal, state and local government web resources and services.